Time,TemperatureF,DewpointF,PressureIn,WindDirection,WindDirectionDegrees,WindSpeedMPH,WindSpeedGustMPH,Humidity,HourlyPrecipIn,Conditions,Clouds,dailyrainin,SoftwareType,DateUTC
2013-02-22 00:00:00,21.8,18.8,30.26,ESE,107,4.0,4.0,88,0.00,,OVC003,0.00,VWS V14.01,2013-02-22 05:00:00,
2013-02-22 00:01:00,21.8,18.8,30.26,ESE,105,4.0,4.0,88,0.00,,OVC003,0.00,VWS V14.01,2013-02-22 05:01:00,
2013-02-22 00:02:00,21.8,18.8,30.25,ESE,110,5.0,5.0,88,0.00,,OVC003,0.00,VWS V14.01,2013-02-22 05:02:00,
2013-02-22 00:07:00,21.8,18.8,30.25,SE,131,4.0,4.0,88,0.00,,OVC003,0.00,VWS V14.01,2013-02-22 05:07:00,
2013-02-22 00:08:00,21.8,18.8,30.25,SE,141,3.0,3.0,88,0.00,,OVC003,0.00,VWS V14.01,2013-02-22 05:08:00,
2013-02-22 00:13:00,21.9,18.9,30.25,SE,136,2.0,2.0,88,0.00,,OVC003,0.00,VWS V14.01,2013-02-22 05:13:00,
2013-02-22 00:18:00,21.9,18.9,30.24,ESE,118,3.0,3.0,88,0.00,,OVC003,0.00,VWS V14.01,2013-02-22 05:18:00,
2013-02-22 00:23:00,21.9,18.9,30.24,SW,218,2.0,2.0,88,0.00,,OVC003,0.00,VWS V14.01,2013-02-22 05:23:00,
2013-02-22 00:29:00,21.9,18.9,30.24,ENE,72,3.0,3.0,88,0.00,,OVC003,0.00,VWS V14.01,2013-02-22 05:29:00,
2013-02-22 00:34:00,21.9,18.9,30.23,ENE,72,2.0,2.0,88,0.00,,OVC003,0.00,VWS V14.01,2013-02-22 05:34:00,
2013-02-22 00:39:00,21.9,19.2,30.23,ESE,114,2.0,3.0,89,0.00,,OVC003,0.00,VWS V14.01,2013-02-22 05:39:00,
2013-02-22 00:44:00,21.9,19.2,30.23,ESE,114,2.0,0.0,89,0.00,,OVC003,0.00,VWS V14.01,2013-02-22 05:44:00,
2013-02-22 00:49:00,21.9,19.2,30.22,ESE,112,2.0,3.0,89,0.00,,OVC003,0.00,VWS V14.01,2013-02-22 05:49:00,
2013-02-22 00:54:00,21.9,19.2,30.22,East,93,2.0,2.0,89,0.00,,OVC003,0.00,VWS V14.01,2013-02-22 05:54:00,
2013-02-22 00:59:00,21.9,19.2,30.22,East,93,2.0,2.0,89,0.00,,OVC003,0.00,VWS V14.01,2013-02-22 05:59:00,
2013-02-22 01:04:00,22.0,19.3,30.23,SE,138,5.0,5.0,89,0.00,,OVC003,0.00,VWS V14.01,2013-02-22 06:04:00,
2013-02-22 01:09:00,22.1,19.4,30.23,ESE,117,2.0,2.0,89,0.00,,OVC003,0.00,VWS V14.01,2013-02-22 06:09:00,
2013-02-22 01:14:00,22.2,19.5,30.23,NE,51,4.0,4.0,89,0.00,,OVC003,0.00,VWS V14.01,2013-02-22 06:14:00,
2013-02-22 01:19:00,22.3,19.6,30.22,ENE,68,4.0,4.0,89,0.00,,OVC003,0.00,VWS V14.01,2013-02-22 06:19:00,
2013-02-22 01:24:00,22.4,19.7,30.22,ESE,110,2.0,3.0,89,0.00,,OVC003,0.00,VWS V14.01,2013-02-22 06:24:00,
2013-02-22 01:29:00,22.5,19.8,30.22,SE,145,3.0,3.0,89,0.00,,OVC003,0.00,VWS V14.01,2013-02-22 06:29:00,
2013-02-22 01:34:00,22.6,19.9,30.23,SE,125,3.0,3.0,89,0.00,,OVC003,0.00,VWS V14.01,2013-02-22 06:34:00,
2013-02-22 01:39:00,22.7,20.0,30.23,SE,124,3.0,3.0,89,0.00,,OVC003,0.00,VWS V14.01,2013-02-22 06:39:00,
2013-02-22 01:44:00,22.7,20.0,30.23,SE,127,8.0,8.0,89,0.00,,OVC003,0.00,VWS V14.01,2013-02-22 06:44:00,
2013-02-22 01:49:00,22.8,20.0,30.23,ESE,120,2.0,2.0,89,0.00,,OVC003,0.00,VWS V14.01,2013-02-22 06:49:00,
2013-02-22 01:54:00,22.9,20.4,30.23,ESE,106,3.0,5.0,90,0.00,,OVC003,0.00,VWS V14.01,2013-02-22 06:54:00,
2013-02-22 01:59:00,23.0,20.5,30.23,NE,36,3.0,4.0,90,0.00,,OVC003,0.00,VWS V14.01,2013-02-22 06:59:00,
2013-02-22 02:04:00,23.0,20.5,30.22,SE,126,3.0,4.0,90,0.00,,OVC003,0.00,VWS V14.01,2013-02-22 07:04:00,
2013-02-22 02:09:00,23.0,20.5,30.22,ESE,120,2.0,2.0,90,0.00,,OVC003,0.00,VWS V14.01,2013-02-22 07:09:00,
2013-02-22 02:14:00,23.1,20.6,30.22,East,99,3.0,4.0,90,0.00,,OVC003,0.00,VWS V14.01,2013-02-22 07:14:00,
2013-02-22 02:19:00,23.1,20.6,30.20,East,85,4.0,4.0,90,0.00,,OVC003,0.00,VWS V14.01,2013-02-22 07:19:00,
2013-02-22 02:24:00,23.2,20.7,30.20,ESE,110,2.0,3.0,90,0.00,,OVC003,0.00,VWS V14.01,2013-02-22 07:24:00,
2013-02-22 02:29:00,23.2,20.7,30.20,ESE,110,3.0,3.0,90,0.00,,OVC003,0.00,VWS V14.01,2013-02-22 07:29:00,
2013-02-22 02:34:00,23.3,20.8,30.19,ESE,110,2.0,2.0,90,0.00,,OVC003,0.00,VWS V14.01,2013-02-22 07:34:00,
2013-02-22 02:39:00,23.3,20.8,30.19,ESE,103,6.0,6.0,90,0.00,,OVC003,0.00,VWS V14.01,2013-02-22 07:39:00,
2013-02-22 02:44:00,23.3,20.8,30.19,SE,128,4.0,6.0,90,0.00,,OVC003,0.00,VWS V14.01,2013-02-22 07:44:00,
2013-02-22 02:49:00,23.3,20.8,30.19,SSE,153,3.0,6.0,90,0.00,,OVC003,0.00,VWS V14.01,2013-02-22 07:49:00,
2013-02-22 02:54:00,23.3,20.8,30.19,ESE,119,3.0,3.0,90,0.00,,OVC003,0.00,VWS V14.01,2013-02-22 07:54:00,
2013-02-22 02:59:00,23.2,20.7,30.19,East,93,3.0,3.0,90,0.00,,OVC003,0.00,VWS V14.01,2013-02-22 07:59:00,
2013-02-22 03:04:00,23.1,20.6,30.19,ESE,119,4.0,4.0,90,0.00,,OVC003,0.00,VWS V14.01,2013-02-22 08:04:00,
2013-02-22 03:09:00,22.9,20.1,30.19,West,266,5.0,7.0,89,0.00,,OVC003,0.00,VWS V14.01,2013-02-22 08:09:00,
2013-02-22 03:14:00,22.8,20.0,30.19,North,6,3.0,4.0,89,0.00,,OVC003,0.00,VWS V14.01,2013-02-22 08:14:00,
2013-02-22 03:19:00,22.7,20.0,30.18,East,90,2.0,2.0,89,0.00,,OVC003,0.00,VWS V14.01,2013-02-22 08:19:00,
2013-02-22 03:24:00,22.6,19.6,30.18,ESE,117,5.0,6.0,88,0.00,,OVC003,0.00,VWS V14.01,2013-02-22 08:24:00,
2013-02-22 03:29:00,22.4,19.4,30.18,ESE,119,2.0,2.0,88,0.00,,OVC003,0.00,VWS V14.01,2013-02-22 08:29:00,
2013-02-22 03:34:00,22.4,19.1,30.16,ENE,76,2.0,2.0,87,0.00,,OVC003,0.00,VWS V14.01,2013-02-22 08:34:00,
2013-02-22 03:39:00,22.4,19.1,30.16,ESE,116,3.0,3.0,87,0.00,,OVC003,0.00,VWS V14.01,2013-02-22 08:39:00,
2013-02-22 03:44:00,22.3,19.0,30.16,ESE,104,3.0,3.0,87,0.00,,OVC003,0.00,VWS V14.01,2013-02-22 08:44:00,
2013-02-22 03:49:00,22.2,18.7,30.14,SE,137,3.0,3.0,86,0.00,,OVC003,0.00,VWS V14.01,2013-02-22 08:49:00,
2013-02-22 03:54:00,22.2,18.7,30.14,South,172,2.0,2.0,86,0.00,,OVC003,0.00,VWS V14.01,2013-02-22 08:54:00,
2013-02-22 03:59:00,22.1,18.6,30.14,ESE,109,2.0,2.0,86,0.00,,OVC003,0.00,VWS V14.01,2013-02-22 08:59:00,
2013-02-22 04:04:00,22.1,18.3,30.14,ESE,113,5.0,5.0,85,0.00,,OVC003,0.00,VWS V14.01,2013-02-22 09:04:00,
2013-02-22 04:09:00,22.1,18.3,30.14,ENE,78,4.0,4.0,85,0.00,,OVC003,0.00,VWS V14.01,2013-02-22 09:09:00,
2013-02-22 04:14:00,22.0,18.2,30.14,ESE,102,2.0,5.0,85,0.00,,OVC003,0.00,VWS V14.01,2013-02-22 09:14:00,
2013-02-22 04:20:00,22.0,18.2,30.13,ESE,102,2.0,2.0,85,0.00,,OVC003,0.00,VWS V14.01,2013-02-22 09:20:00,
2013-02-22 04:25:00,22.0,18.2,30.13,ESE,107,3.0,4.0,85,0.00,,OVC003,0.00,VWS V14.01,2013-02-22 09:25:00,
2013-02-22 04:30:00,22.0,18.2,30.13,ENE,58,2.0,3.0,85,0.00,,OVC003,0.00,VWS V14.01,2013-02-22 09:30:00,
2013-02-22 04:35:00,22.0,17.9,30.12,East,98,2.0,2.0,84,0.00,,OVC003,0.00,VWS V14.01,2013-02-22 09:35:00,
2013-02-22 04:40:00,22.0,17.9,30.12,ENE,67,3.0,3.0,84,0.00,,OVC003,0.00,VWS V14.01,2013-02-22 09:40:00,
2013-02-22 04:45:00,22.0,17.9,30.12,NNE,33,2.0,5.0,84,0.00,,OVC003,0.00,VWS V14.01,2013-02-22 09:45:00,
2013-02-22 04:50:00,22.0,17.9,30.10,SE,126,5.0,5.0,84,0.00,,OVC003,0.00,VWS V14.01,2013-02-22 09:50:00,
2013-02-22 04:55:00,22.1,18.0,30.10,NE,37,2.0,2.0,84,0.00,,OVC003,0.00,VWS V14.01,2013-02-22 09:55:00,
2013-02-22 05:00:00,22.2,18.1,30.10,East,83,2.0,2.0,84,0.00,,OVC003,0.00,VWS V14.01,2013-02-22 10:00:00,
2013-02-22 05:05:00,22.2,18.1,30.10,SE,142,3.0,3.0,84,0.00,,OVC003,0.00,VWS V14.01,2013-02-22 10:05:00,
2013-02-22 05:10:00,22.2,17.8,30.10,ENE,76,2.0,2.0,83,0.00,,OVC003,0.00,VWS V14.01,2013-02-22 10:10:00,
2013-02-22 05:15:00,22.3,17.9,30.10,ENE,62,3.0,6.0,83,0.00,,OVC003,0.00,VWS V14.01,2013-02-22 10:15:00,
2013-02-22 05:20:00,22.4,18.0,30.11,SE,128,2.0,4.0,83,0.00,,OVC003,0.00,VWS V14.01,2013-02-22 10:20:00,
2013-02-22 05:25:00,22.4,18.0,30.11,ESE,115,2.0,4.0,83,0.00,,OVC003,0.00,VWS V14.01,2013-02-22 10:25:00,
2013-02-22 05:30:00,22.5,17.9,30.11,ESE,103,2.0,6.0,82,0.00,,OVC003,0.00,VWS V14.01,2013-02-22 10:30:00,
2013-02-22 05:35:00,22.5,17.9,30.11,ESE,122,4.0,4.0,82,0.00,,OVC003,0.00,VWS V14.01,2013-02-22 10:35:00,
2013-02-22 05:40:00,22.5,17.9,30.11,NNE,33,2.0,6.0,82,0.00,,OVC003,0.00,VWS V14.01,2013-02-22 10:40:00,
2013-02-22 05:45:00,22.6,17.9,30.11,ESE,117,3.0,3.0,82,0.00,,OVC003,0.00,VWS V14.01,2013-02-22 10:45:00,
2013-02-22 05:50:00,22.6,17.9,30.11,NNE,29,7.0,7.0,82,0.00,,OVC003,0.00,VWS V14.01,2013-02-22 10:50:00,
2013-02-22 05:55:00,22.6,17.7,30.11,ESE,121,2.0,3.0,81,0.00,,OVC003,0.00,VWS V14.01,2013-02-22 10:55:00,
2013-02-22 06:00:00,22.6,17.7,30.11,SE,125,2.0,4.0,81,0.00,,OVC003,0.00,VWS V14.01,2013-02-22 11:00:00,
2013-02-22 06:05:00,22.6,17.7,30.12,ESE,120,2.0,2.0,81,0.00,,OVC003,0.00,VWS V14.01,2013-02-22 11:05:00,
2013-02-22 06:10:00,22.7,17.8,30.12,ESE,120,3.0,3.0,81,0.00,,OVC003,0.00,VWS V14.01,2013-02-22 11:10:00,
2013-02-22 06:15:00,22.7,17.8,30.12,ESE,120,2.0,3.0,81,0.00,,OVC003,0.00,VWS V14.01,2013-02-22 11:15:00,
2013-02-22 06:20:00,22.7,17.5,30.12,ESE,117,2.0,3.0,80,0.00,,OVC003,0.00,VWS V14.01,2013-02-22 11:20:00,
2013-02-22 06:25:00,22.7,17.5,30.12,ESE,117,2.0,2.0,80,0.00,,OVC003,0.00,VWS V14.01,2013-02-22 11:25:00,
2013-02-22 06:30:00,22.7,17.5,30.12,East,89,3.0,3.0,80,0.00,,OVC003,0.00,VWS V14.01,2013-02-22 11:30:00,
2013-02-22 06:35:00,22.7,17.5,30.11,ESE,118,3.0,4.0,80,0.00,,OVC003,0.00,VWS V14.01,2013-02-22 11:35:00,
2013-02-22 06:40:00,22.6,17.4,30.11,ESE,118,5.0,5.0,80,0.00,,OVC003,0.00,VWS V14.01,2013-02-22 11:40:00,
2013-02-22 06:45:00,22.6,17.1,30.11,NNE,33,4.0,4.0,79,0.00,,OVC003,0.00,VWS V14.01,2013-02-22 11:45:00,
2013-02-22 06:50:00,22.6,17.1,30.09,ESE,123,4.0,5.0,79,0.00,,OVC003,0.00,VWS V14.01,2013-02-22 11:50:00,
2013-02-22 06:55:00,22.6,17.1,30.09,NE,39,2.0,4.0,79,0.00,,OVC003,0.00,VWS V14.01,2013-02-22 11:55:00,
2013-02-22 07:00:00,22.5,17.3,30.09,SW,230,2.0,5.0,80,0.00,,OVC003,0.00,VWS V14.01,2013-02-22 12:00:00,
2013-02-22 07:05:00,22.2,17.3,30.08,ENE,76,2.0,5.0,81,0.00,,OVC003,0.00,VWS V14.01,2013-02-22 12:05:00,
2013-02-22 07:10:00,21.8,17.4,30.08,ESE,117,2.0,5.0,83,0.00,,OVC003,0.00,VWS V14.01,2013-02-22 12:10:00,
2013-02-22 07:15:00,21.5,17.4,30.08,SSE,155,2.0,2.0,84,0.00,,OVC003,0.00,VWS V14.01,2013-02-22 12:15:00,
2013-02-22 07:20:00,21.3,17.5,30.07,ESE,116,2.0,4.0,85,0.00,,OVC003,0.00,VWS V14.01,2013-02-22 12:20:00,
2013-02-22 07:25:00,21.1,17.6,30.07,ESE,103,2.0,3.0,86,0.00,,OVC003,0.00,VWS V14.01,2013-02-22 12:25:00,
2013-02-22 07:30:00,20.9,17.4,30.07,NNE,21,3.0,3.0,86,0.00,,OVC003,0.00,VWS V14.01,2013-02-22 12:30:00,
2013-02-22 07:35:00,20.9,17.6,30.07,SE,127,3.0,4.0,87,0.00,,OVC003,0.00,VWS V14.01,2013-02-22 12:35:00,
2013-02-22 07:41:00,20.8,17.5,30.07,SE,130,4.0,4.0,87,0.00,,OVC003,0.00,VWS V14.01,2013-02-22 12:41:00,
2013-02-22 07:46:00,20.7,17.7,30.07,ESE,114,3.0,4.0,88,0.00,,OVC003,0.00,VWS V14.01,2013-02-22 12:46:00,
2013-02-22 07:51:00,20.7,17.7,30.07,ESE,110,2.0,2.0,88,0.00,,OVC003,0.00,VWS V14.01,2013-02-22 12:51:00,
2013-02-22 07:56:00,20.7,17.7,30.07,ESE,109,2.0,2.0,88,0.00,,OVC003,0.00,VWS V14.01,2013-02-22 12:56:00,
2013-02-22 08:01:00,20.7,17.7,30.07,ENE,62,4.0,4.0,88,0.00,,OVC003,0.00,VWS V14.01,2013-02-22 13:01:00,
2013-02-22 08:06:00,20.7,17.7,30.05,NNE,29,2.0,2.0,88,0.00,,OVC003,0.00,VWS V14.01,2013-02-22 13:06:00,
2013-02-22 08:11:00,20.7,18.0,30.05,NE,54,4.0,4.0,89,0.00,,OVC003,0.00,VWS V14.01,2013-02-22 13:11:00,
2013-02-22 08:16:00,20.7,18.0,30.05,NE,52,4.0,4.0,89,0.00,,OVC003,0.00,VWS V14.01,2013-02-22 13:16:00,
2013-02-22 08:21:00,20.6,17.9,30.02,NE,41,2.0,2.0,89,0.00,,OVC003,0.00,VWS V14.01,2013-02-22 13:21:00,
2013-02-22 08:26:00,20.6,17.9,30.02,ENE,59,2.0,4.0,89,0.00,,OVC003,0.00,VWS V14.01,2013-02-22 13:26:00,
2013-02-22 08:31:00,20.6,17.9,30.02,ESE,114,3.0,3.0,89,0.00,,OVC003,0.00,VWS V14.01,2013-02-22 13:31:00,
2013-02-22 08:36:00,20.7,18.0,30.01,ESE,108,2.0,3.0,89,0.00,,OVC003,0.00,VWS V14.01,2013-02-22 13:36:00,
2013-02-22 08:41:00,20.7,18.0,30.01,NE,52,4.0,4.0,89,0.00,,OVC003,0.00,VWS V14.01,2013-02-22 13:41:00,
2013-02-22 08:46:00,20.8,18.1,30.01,NNE,13,4.0,4.0,89,0.00,,OVC003,0.00,VWS V14.01,2013-02-22 13:46:00,
2013-02-22 08:51:00,20.9,18.2,29.99,NE,53,5.0,5.0,89,0.00,,OVC003,0.00,VWS V14.01,2013-02-22 13:51:00,
2013-02-22 08:56:00,21.0,18.5,29.99,East,101,3.0,4.0,90,0.00,,OVC003,0.00,VWS V14.01,2013-02-22 13:56:00,
2013-02-22 09:01:00,21.1,18.6,29.99,North,7,2.0,4.0,90,0.00,,OVC003,0.00,VWS V14.01,2013-02-22 14:01:00,
2013-02-22 09:06:00,21.1,18.6,29.98,ENE,66,3.0,3.0,90,0.00,,OVC003,0.00,VWS V14.01,2013-02-22 14:06:00,
2013-02-22 09:11:00,21.2,18.7,29.98,SSE,147,3.0,3.0,90,0.00,,OVC003,0.00,VWS V14.01,2013-02-22 14:11:00,
2013-02-22 09:16:00,21.3,18.8,29.98,ENE,75,5.0,5.0,90,0.00,,OVC003,0.00,VWS V14.01,2013-02-22 14:16:00,
2013-02-22 09:21:00,21.5,19.0,29.98,NNE,31,3.0,3.0,90,0.00,,OVC003,0.00,VWS V14.01,2013-02-22 14:21:00,
2013-02-22 09:26:00,21.6,19.1,29.98,WNW,293,2.0,2.0,90,0.00,,OVC003,0.00,VWS V14.01,2013-02-22 14:26:00,
2013-02-22 09:31:00,21.7,19.2,29.98,ENE,60,3.0,4.0,90,0.00,,OVC003,0.00,VWS V14.01,2013-02-22 14:31:00,
2013-02-22 09:36:00,21.8,19.3,29.97,ESE,115,3.0,3.0,90,0.00,,OVC003,0.00,VWS V14.01,2013-02-22 14:36:00,
2013-02-22 09:41:00,22.0,19.5,29.97,ESE,120,5.0,5.0,90,0.00,,OVC003,0.00,VWS V14.01,2013-02-22 14:41:00,
2013-02-22 09:46:00,22.1,19.6,29.97,ESE,119,2.0,5.0,90,0.00,,OVC003,0.00,VWS V14.01,2013-02-22 14:46:00,
2013-02-22 09:51:00,22.3,19.8,29.97,ESE,112,3.0,3.0,90,0.00,,OVC003,0.00,VWS V14.01,2013-02-22 14:51:00,
2013-02-22 09:56:00,22.4,20.2,29.97,ESE,121,2.0,3.0,91,0.00,,OVC003,0.00,VWS V14.01,2013-02-22 14:56:00,
2013-02-22 10:01:00,22.5,20.3,29.97,ESE,110,5.0,5.0,91,0.00,,OVC003,0.00,VWS V14.01,2013-02-22 15:01:00,
2013-02-22 10:06:00,22.6,20.4,29.97,ESE,121,2.0,2.0,91,0.00,,OVC003,0.00,VWS V14.01,2013-02-22 15:06:00,
2013-02-22 10:11:00,22.7,20.5,29.97,SE,143,2.0,3.0,91,0.00,,OVC003,0.00,VWS V14.01,2013-02-22 15:11:00,
2013-02-22 10:16:00,22.9,20.7,29.97,SE,133,2.0,2.0,91,0.00,,OVC003,0.00,VWS V14.01,2013-02-22 15:16:00,
2013-02-22 10:21:00,23.0,20.8,29.97,SE,132,2.0,2.0,91,0.00,,OVC003,0.00,VWS V14.01,2013-02-22 15:21:00,
2013-02-22 10:26:00,23.1,20.9,29.97,ESE,110,2.0,3.0,91,0.00,,OVC003,0.00,VWS V14.01,2013-02-22 15:26:00,
2013-02-22 10:31:00,23.2,21.0,29.97,SE,141,2.0,2.0,91,0.00,,OVC003,0.00,VWS V14.01,2013-02-22 15:31:00,
2013-02-22 10:36:00,23.4,21.2,29.95,ESE,107,2.0,2.0,91,0.00,,OVC003,0.00,VWS V14.01,2013-02-22 15:36:00,
2013-02-22 10:41:00,23.6,21.4,29.95,NE,52,2.0,4.0,91,0.00,,OVC003,0.00,VWS V14.01,2013-02-22 15:41:00,
2013-02-22 10:46:00,23.8,21.6,29.94,ESE,105,2.0,2.0,91,0.00,,OVC003,0.00,VWS V14.01,2013-02-22 15:46:00,
2013-02-22 10:51:00,24.0,21.8,29.94,ESE,110,2.0,3.0,91,0.00,,OVC003,0.00,VWS V14.01,2013-02-22 15:51:00,
2013-02-22 10:56:00,24.0,21.8,29.94,North,5,3.0,4.0,91,0.00,,OVC003,0.00,VWS V14.01,2013-02-22 15:56:00,
2013-02-22 11:02:00,24.1,21.9,29.94,ENE,64,2.0,3.0,91,0.00,,OVC003,0.00,VWS V14.01,2013-02-22 16:02:00,
2013-02-22 11:07:00,24.1,21.9,29.94,SE,126,4.0,4.0,91,0.00,,OVC003,0.00,VWS V14.01,2013-02-22 16:07:00,
2013-02-22 11:12:00,24.0,21.8,29.94,ESE,121,5.0,5.0,91,0.00,,OVC003,0.00,VWS V14.01,2013-02-22 16:12:00,
2013-02-22 11:17:00,24.1,21.9,29.93,ESE,110,2.0,2.0,91,0.00,,OVC003,0.00,VWS V14.01,2013-02-22 16:17:00,
2013-02-22 11:22:00,24.3,22.1,29.93,SE,137,3.0,3.0,91,0.00,,OVC003,0.00,VWS V14.01,2013-02-22 16:22:00,
2013-02-22 11:27:00,24.3,22.1,29.93,ESE,112,2.0,3.0,91,0.00,,OVC003,0.00,VWS V14.01,2013-02-22 16:27:00,
2013-02-22 11:32:00,24.3,22.1,29.92,SE,140,2.0,6.0,91,0.00,,OVC003,0.00,VWS V14.01,2013-02-22 16:32:00,
2013-02-22 11:37:00,24.3,22.1,29.92,ESE,120,2.0,3.0,91,0.00,,OVC003,0.00,VWS V14.01,2013-02-22 16:37:00,
2013-02-22 11:42:00,24.3,22.1,29.92,SE,143,3.0,3.0,91,0.00,,OVC003,0.00,VWS V14.01,2013-02-22 16:42:00,
2013-02-22 11:47:00,24.3,22.1,29.92,ESE,120,3.0,3.0,91,0.00,,OVC003,0.00,VWS V14.01,2013-02-22 16:47:00,
2013-02-22 11:52:00,24.4,22.2,29.92,ESE,120,3.0,3.0,91,0.00,,OVC003,0.00,VWS V14.01,2013-02-22 16:52:00,
2013-02-22 11:57:00,24.4,21.9,29.92,ESE,114,2.0,4.0,90,0.00,,OVC003,0.00,VWS V14.01,2013-02-22 16:57:00,
2013-02-22 12:02:00,24.4,21.9,29.92,ESE,114,2.0,5.0,90,0.00,,OVC003,0.00,VWS V14.01,2013-02-22 17:02:00,
2013-02-22 12:07:00,24.5,22.0,29.92,ESE,122,4.0,4.0,90,0.00,,OVC003,0.00,VWS V14.01,2013-02-22 17:07:00,
2013-02-22 12:12:00,24.5,22.0,29.92,SE,140,2.0,4.0,90,0.00,,OVC003,0.00,VWS V14.01,2013-02-22 17:12:00,
2013-02-22 12:17:00,24.6,22.1,29.91,SE,131,3.0,3.0,90,0.00,,OVC003,0.00,VWS V14.01,2013-02-22 17:17:00,
2013-02-22 12:22:00,24.7,22.2,29.91,ESE,117,2.0,2.0,90,0.00,,OVC003,0.00,VWS V14.01,2013-02-22 17:22:00,
2013-02-22 12:27:00,24.7,22.2,29.91,ESE,116,2.0,3.0,90,0.00,,OVC003,0.00,VWS V14.01,2013-02-22 17:27:00,
2013-02-22 12:32:00,24.8,22.3,29.91,SE,124,2.0,3.0,90,0.00,,OVC003,0.00,VWS V14.01,2013-02-22 17:32:00,
2013-02-22 12:37:00,24.8,22.3,29.91,ESE,114,2.0,3.0,90,0.00,,OVC003,0.00,VWS V14.01,2013-02-22 17:37:00,
2013-02-22 12:42:00,24.9,22.4,29.91,SE,133,2.0,2.0,90,0.00,,OVC003,0.00,VWS V14.01,2013-02-22 17:42:00,
2013-02-22 12:47:00,24.9,22.4,29.91,ENE,60,2.0,5.0,90,0.00,,OVC003,0.00,VWS V14.01,2013-02-22 17:47:00,
2013-02-22 12:52:00,25.0,22.5,29.91,SE,143,2.0,4.0,90,0.00,,OVC003,0.00,VWS V14.01,2013-02-22 17:52:00,
2013-02-22 12:57:00,25.1,22.6,29.91,SE,141,2.0,3.0,90,0.00,,OVC003,0.00,VWS V14.01,2013-02-22 17:57:00,
2013-02-22 13:02:00,25.3,22.8,29.90,SE,141,2.0,2.0,90,0.00,,OVC003,0.00,VWS V14.01,2013-02-22 18:02:00,
2013-02-22 13:07:00,25.5,23.0,29.90,SE,140,2.0,2.0,90,0.00,,OVC003,0.00,VWS V14.01,2013-02-22 18:07:00,
2013-02-22 13:12:00,25.8,23.3,29.90,ESE,116,2.0,2.0,90,0.00,,OVC003,0.00,VWS V14.01,2013-02-22 18:12:00,
2013-02-22 13:17:00,26.0,23.5,29.89,ESE,117,2.0,2.0,90,0.00,,OVC003,0.00,VWS V14.01,2013-02-22 18:17:00,
2013-02-22 13:22:00,26.1,23.3,29.89,ESE,117,3.0,3.0,89,0.00,,OVC003,0.00,VWS V14.01,2013-02-22 18:22:00,
2013-02-22 13:27:00,26.1,23.3,29.89,East,87,3.0,3.0,89,0.00,,OVC003,0.00,VWS V14.01,2013-02-22 18:27:00,
2013-02-22 13:32:00,26.0,23.2,29.88,ESE,121,2.0,2.0,89,0.00,,OVC003,0.00,VWS V14.01,2013-02-22 18:32:00,
2013-02-22 13:37:00,26.0,23.2,29.88,SE,138,2.0,3.0,89,0.00,,OVC003,0.00,VWS V14.01,2013-02-22 18:37:00,
2013-02-22 13:42:00,26.1,23.3,29.88,SE,127,2.0,2.0,89,0.00,,OVC003,0.00,VWS V14.01,2013-02-22 18:42:00,
2013-02-22 13:47:00,26.2,23.4,29.88,SE,127,2.0,2.0,89,0.00,,OVC003,0.00,VWS V14.01,2013-02-22 18:47:00,
2013-02-22 13:52:00,26.2,23.4,29.88,SSE,148,2.0,3.0,89,0.00,,OVC003,0.00,VWS V14.01,2013-02-22 18:52:00,
2013-02-22 13:57:00,26.5,23.7,29.88,SSE,148,2.0,2.0,89,0.00,,OVC003,0.00,VWS V14.01,2013-02-22 18:57:00,
2013-02-22 14:02:00,26.6,23.8,29.87,SSE,148,2.0,2.0,89,0.00,,OVC003,0.00,VWS V14.01,2013-02-22 19:02:00,
2013-02-22 14:07:00,26.7,23.9,29.87,SE,145,2.0,2.0,89,0.00,,OVC003,0.00,VWS V14.01,2013-02-22 19:07:00,
2013-02-22 14:12:00,26.8,24.0,29.87,SE,145,2.0,0.0,89,0.00,,OVC003,0.00,VWS V14.01,2013-02-22 19:12:00,
2013-02-22 14:17:00,26.8,24.0,29.87,SE,145,2.0,2.0,89,0.00,,OVC003,0.00,VWS V14.01,2013-02-22 19:17:00,
2013-02-22 14:22:00,26.7,23.9,29.87,SE,145,2.0,2.0,89,0.00,,OVC003,0.00,VWS V14.01,2013-02-22 19:22:00,
2013-02-22 14:27:00,26.7,23.9,29.87,SE,145,2.0,0.0,89,0.00,,OVC003,0.00,VWS V14.01,2013-02-22 19:27:00,
2013-02-22 14:33:00,26.7,23.9,29.88,NNE,33,2.0,0.0,89,0.00,,OVC003,0.00,VWS V14.01,2013-02-22 19:33:00,
2013-02-22 14:38:00,26.7,23.9,29.88,NNE,33,2.0,0.0,89,0.00,,OVC003,0.00,VWS V14.01,2013-02-22 19:38:00,
2013-02-22 14:43:00,26.8,24.0,29.88,East,91,2.0,0.0,89,0.00,,OVC003,0.00,VWS V14.01,2013-02-22 19:43:00,
2013-02-22 14:48:00,26.9,24.1,29.86,East,91,2.0,0.0,89,0.00,,OVC003,0.00,VWS V14.01,2013-02-22 19:48:00,
2013-02-22 14:53:00,27.0,24.2,29.86,East,90,2.0,0.0,89,0.00,,OVC003,0.00,VWS V14.01,2013-02-22 19:53:00,
2013-02-22 14:58:00,27.1,24.3,29.86,East,91,2.0,0.0,89,0.00,,OVC003,0.00,VWS V14.01,2013-02-22 19:58:00,
2013-02-22 15:03:00,27.1,24.3,29.86,East,87,3.0,3.0,89,0.00,,OVC003,0.00,VWS V14.01,2013-02-22 20:03:00,
2013-02-22 15:08:00,27.1,24.3,29.86,East,88,2.0,0.0,89,0.00,,OVC003,0.00,VWS V14.01,2013-02-22 20:08:00,
2013-02-22 15:13:00,27.1,24.3,29.86,East,88,2.0,0.0,89,0.00,,OVC003,0.00,VWS V14.01,2013-02-22 20:13:00,
2013-02-22 15:18:00,27.1,24.3,29.86,East,88,2.0,0.0,89,0.00,,OVC003,0.00,VWS V14.01,2013-02-22 20:18:00,
2013-02-22 15:23:00,27.0,24.2,29.86,East,88,2.0,0.0,89,0.00,,OVC003,0.00,VWS V14.01,2013-02-22 20:23:00,
2013-02-22 15:28:00,27.0,24.2,29.86,East,89,2.0,0.0,89,0.00,,OVC003,0.00,VWS V14.01,2013-02-22 20:28:00,
2013-02-22 15:33:00,26.9,24.1,29.86,East,89,2.0,0.0,89,0.00,,OVC003,0.00,VWS V14.01,2013-02-22 20:33:00,
2013-02-22 15:38:00,26.9,24.1,29.86,East,93,2.0,0.0,89,0.00,,OVC003,0.00,VWS V14.01,2013-02-22 20:38:00,
2013-02-22 15:43:00,27.0,24.2,29.86,East,93,2.0,0.0,89,0.00,,OVC003,0.00,VWS V14.01,2013-02-22 20:43:00,
2013-02-22 15:48:00,27.0,24.5,29.85,East,93,2.0,0.0,90,0.00,,OVC003,0.00,VWS V14.01,2013-02-22 20:48:00,
2013-02-22 15:53:00,27.1,24.6,29.85,East,93,2.0,0.0,90,0.00,,OVC003,0.00,VWS V14.01,2013-02-22 20:53:00,
2013-02-22 15:58:00,27.1,24.6,29.85,East,93,2.0,0.0,90,0.00,,OVC003,0.00,VWS V14.01,2013-02-22 20:58:00,
2013-02-22 16:03:00,27.1,24.6,29.84,East,93,2.0,0.0,90,0.00,,OVC003,0.00,VWS V14.01,2013-02-22 21:03:00,
2013-02-22 16:08:00,27.2,24.7,29.84,ENE,63,3.0,3.0,90,0.00,,OVC003,0.00,VWS V14.01,2013-02-22 21:08:00,
2013-02-22 16:13:00,27.2,24.7,29.84,ENE,64,2.0,0.0,90,0.00,,OVC003,0.00,VWS V14.01,2013-02-22 21:13:00,
2013-02-22 16:18:00,27.3,24.8,29.84,ENE,64,2.0,0.0,90,0.00,,OVC003,0.00,VWS V14.01,2013-02-22 21:18:00,
2013-02-22 16:23:00,27.4,24.9,29.84,ENE,63,2.0,2.0,90,0.00,,OVC003,0.00,VWS V14.01,2013-02-22 21:23:00,
2013-02-22 16:28:00,27.4,24.9,29.84,ENE,64,2.0,0.0,90,0.00,,OVC003,0.00,VWS V14.01,2013-02-22 21:28:00,
2013-02-22 16:33:00,27.4,24.9,29.85,ENE,64,2.0,0.0,90,0.00,,OVC003,0.00,VWS V14.01,2013-02-22 21:33:00,
2013-02-22 16:38:00,27.5,25.0,29.85,ENE,64,2.0,0.0,90,0.00,,OVC003,0.00,VWS V14.01,2013-02-22 21:38:00,
2013-02-22 16:43:00,27.5,25.0,29.85,ENE,64,2.0,0.0,90,0.00,,OVC003,0.00,VWS V14.01,2013-02-22 21:43:00,
2013-02-22 16:48:00,27.5,25.0,29.84,ENE,64,2.0,0.0,90,0.00,,OVC003,0.00,VWS V14.01,2013-02-22 21:48:00,
2013-02-22 16:53:00,27.5,25.0,29.84,ENE,63,2.0,0.0,90,0.00,,OVC003,0.00,VWS V14.01,2013-02-22 21:53:00,
2013-02-22 16:58:00,27.6,25.1,29.84,ENE,64,2.0,0.0,90,0.00,,OVC003,0.00,VWS V14.01,2013-02-22 21:58:00,
2013-02-22 17:03:00,27.6,25.1,29.84,ENE,63,2.0,0.0,90,0.00,,OVC003,0.00,VWS V14.01,2013-02-22 22:03:00,
2013-02-22 17:08:00,27.6,25.1,29.84,ENE,64,2.0,0.0,90,0.00,,OVC003,0.00,VWS V14.01,2013-02-22 22:08:00,
2013-02-22 17:13:00,27.6,25.1,29.84,ENE,64,2.0,0.0,90,0.00,,OVC003,0.00,VWS V14.01,2013-02-22 22:13:00,
2013-02-22 17:18:00,27.6,25.1,29.83,ENE,64,2.0,0.0,90,0.00,,OVC003,0.00,VWS V14.01,2013-02-22 22:18:00,
2013-02-22 17:23:00,27.6,25.1,29.83,ENE,64,2.0,0.0,90,0.00,,OVC003,0.00,VWS V14.01,2013-02-22 22:23:00,
2013-02-22 17:28:00,27.7,25.2,29.83,ENE,63,2.0,0.0,90,0.00,,OVC003,0.00,VWS V14.01,2013-02-22 22:28:00,
2013-02-22 17:33:00,27.7,25.2,29.84,ENE,63,2.0,0.0,90,0.00,,OVC003,0.00,VWS V14.01,2013-02-22 22:33:00,
2013-02-22 17:38:00,27.8,25.5,29.84,ENE,63,2.0,0.0,91,0.00,,OVC003,0.00,VWS V14.01,2013-02-22 22:38:00,
2013-02-22 17:43:00,27.8,25.5,29.84,ENE,64,2.0,0.0,91,0.00,,OVC003,0.00,VWS V14.01,2013-02-22 22:43:00,
2013-02-22 17:48:00,27.8,25.5,29.84,ENE,64,2.0,0.0,91,0.00,,OVC003,0.00,VWS V14.01,2013-02-22 22:48:00,
2013-02-22 17:53:00,27.8,25.5,29.84,ENE,63,2.0,0.0,91,0.00,,OVC003,0.00,VWS V14.01,2013-02-22 22:53:00,
2013-02-22 17:58:00,27.8,25.5,29.84,ENE,63,2.0,0.0,91,0.00,,OVC003,0.00,VWS V14.01,2013-02-22 22:58:00,
2013-02-22 18:04:00,27.8,25.5,29.84,ENE,64,2.0,0.0,91,0.00,,OVC003,0.00,VWS V14.01,2013-02-22 23:04:00,
2013-02-22 18:09:00,27.8,25.5,29.84,ENE,63,2.0,0.0,91,0.00,,OVC003,0.00,VWS V14.01,2013-02-22 23:09:00,
2013-02-22 18:14:00,27.8,25.5,29.84,ENE,64,2.0,0.0,91,0.00,,OVC003,0.00,VWS V14.01,2013-02-22 23:14:00,
2013-02-22 18:19:00,27.8,25.5,29.84,ENE,64,2.0,0.0,91,0.00,,OVC003,0.00,VWS V14.01,2013-02-22 23:19:00,
2013-02-22 18:24:00,27.8,25.5,29.84,ENE,63,2.0,0.0,91,0.00,,OVC003,0.00,VWS V14.01,2013-02-22 23:24:00,
2013-02-22 18:29:00,27.7,25.4,29.84,ENE,63,2.0,0.0,91,0.00,,OVC003,0.00,VWS V14.01,2013-02-22 23:29:00,
2013-02-22 18:34:00,27.7,25.4,29.84,ENE,64,2.0,0.0,91,0.00,,OVC003,0.00,VWS V14.01,2013-02-22 23:34:00,
2013-02-22 18:39:00,27.7,25.4,29.84,ENE,64,2.0,0.0,91,0.00,,OVC003,0.00,VWS V14.01,2013-02-22 23:39:00,
2013-02-22 18:44:00,27.7,25.4,29.84,ENE,64,2.0,0.0,91,0.00,,OVC003,0.00,VWS V14.01,2013-02-22 23:44:00,
2013-02-22 18:49:00,27.7,25.4,29.84,ENE,64,2.0,0.0,91,0.00,,OVC003,0.00,VWS V14.01,2013-02-22 23:49:00,
2013-02-22 18:54:00,27.7,25.4,29.84,ENE,64,2.0,0.0,91,0.00,,OVC003,0.00,VWS V14.01,2013-02-22 23:54:00,
2013-02-22 18:59:00,27.7,25.4,29.84,ENE,63,2.0,0.0,91,0.00,,OVC003,0.00,VWS V14.01,2013-02-22 23:59:00,
2013-02-22 19:04:00,27.7,25.4,29.84,ENE,64,2.0,0.0,91,0.00,,OVC003,0.00,VWS V14.01,2013-02-23 00:04:00,
2013-02-22 19:09:00,27.7,25.4,29.84,ENE,63,2.0,0.0,91,0.00,,OVC003,0.00,VWS V14.01,2013-02-23 00:09:00,
2013-02-22 19:14:00,27.7,25.4,29.84,ENE,64,2.0,0.0,91,0.00,,OVC003,0.00,VWS V14.01,2013-02-23 00:14:00,
2013-02-22 19:19:00,27.8,25.5,29.85,ENE,64,2.0,0.0,91,0.00,,OVC003,0.00,VWS V14.01,2013-02-23 00:19:00,
2013-02-22 19:24:00,27.8,25.5,29.85,ENE,63,2.0,0.0,91,0.00,,OVC003,0.00,VWS V14.01,2013-02-23 00:24:00,
2013-02-22 19:29:00,27.8,25.5,29.85,ENE,63,2.0,0.0,91,0.00,,OVC003,0.00,VWS V14.01,2013-02-23 00:29:00,
2013-02-22 19:34:00,27.8,25.8,29.84,ENE,64,2.0,0.0,92,0.00,,OVC003,0.00,VWS V14.01,2013-02-23 00:34:00,
2013-02-22 19:39:00,27.8,25.8,29.84,ENE,64,2.0,0.0,92,0.00,,OVC003,0.00,VWS V14.01,2013-02-23 00:39:00,
2013-02-22 19:44:00,27.8,25.8,29.84,ENE,63,2.0,0.0,92,0.00,,OVC003,0.00,VWS V14.01,2013-02-23 00:44:00,
2013-02-22 19:49:00,27.9,25.9,29.84,ENE,64,2.0,0.0,92,0.00,,OVC003,0.00,VWS V14.01,2013-02-23 00:49:00,
2013-02-22 19:54:00,27.9,25.9,29.84,ENE,64,2.0,0.0,92,0.00,,OVC003,0.00,VWS V14.01,2013-02-23 00:54:00,
2013-02-22 19:59:00,28.0,26.0,29.84,ENE,63,2.0,0.0,92,0.00,,OVC003,0.00,VWS V14.01,2013-02-23 00:59:00,
2013-02-22 20:04:00,28.0,26.0,29.84,ENE,63,2.0,0.0,92,0.00,,OVC003,0.00,VWS V14.01,2013-02-23 01:04:00,
2013-02-22 20:09:00,28.1,26.1,29.84,ENE,64,2.0,0.0,92,0.00,,OVC003,0.00,VWS V14.01,2013-02-23 01:09:00,
2013-02-22 20:14:00,28.1,26.1,29.84,ENE,63,2.0,0.0,92,0.00,,OVC003,0.00,VWS V14.01,2013-02-23 01:14:00,
2013-02-22 20:19:00,28.1,26.1,29.83,ENE,64,2.0,0.0,92,0.00,,OVC003,0.00,VWS V14.01,2013-02-23 01:19:00,
2013-02-22 20:24:00,28.1,26.1,29.83,ENE,64,2.0,0.0,92,0.00,,OVC003,0.00,VWS V14.01,2013-02-23 01:24:00,
2013-02-22 20:29:00,28.1,26.1,29.83,ENE,64,2.0,0.0,92,0.00,,OVC003,0.00,VWS V14.01,2013-02-23 01:29:00,
2013-02-22 20:34:00,28.1,26.1,29.83,ENE,63,2.0,0.0,92,0.00,,OVC003,0.00,VWS V14.01,2013-02-23 01:34:00,
2013-02-22 20:39:00,28.1,26.1,29.83,ENE,63,2.0,0.0,92,0.00,,OVC003,0.00,VWS V14.01,2013-02-23 01:39:00,
2013-02-22 20:44:00,28.1,26.1,29.83,ENE,64,2.0,0.0,92,0.00,,OVC003,0.00,VWS V14.01,2013-02-23 01:44:00,
2013-02-22 20:49:00,28.1,26.1,29.83,ENE,63,2.0,0.0,92,0.00,,OVC003,0.00,VWS V14.01,2013-02-23 01:49:00,
2013-02-22 20:54:00,28.1,26.1,29.83,ENE,64,2.0,0.0,92,0.00,,OVC003,0.00,VWS V14.01,2013-02-23 01:54:00,
2013-02-22 20:59:00,28.2,26.2,29.83,ENE,64,2.0,0.0,92,0.00,,OVC003,0.00,VWS V14.01,2013-02-23 01:59:00,
2013-02-22 21:04:00,28.1,26.1,29.83,ENE,64,2.0,0.0,92,0.00,,OVC003,0.00,VWS V14.01,2013-02-23 02:04:00,
2013-02-22 21:09:00,28.2,26.2,29.83,ENE,63,2.0,0.0,92,0.00,,OVC003,0.00,VWS V14.01,2013-02-23 02:09:00,
2013-02-22 21:14:00,28.1,26.1,29.83,ENE,63,2.0,0.0,92,0.00,,OVC003,0.00,VWS V14.01,2013-02-23 02:14:00,
2013-02-22 21:20:00,28.2,26.2,29.83,ENE,63,2.0,0.0,92,0.00,,OVC003,0.00,VWS V14.01,2013-02-23 02:20:00,
2013-02-22 21:25:00,28.2,26.2,29.83,ENE,64,2.0,0.0,92,0.00,,OVC003,0.00,VWS V14.01,2013-02-23 02:25:00,
2013-02-22 21:30:00,28.2,26.2,29.83,ENE,64,2.0,0.0,92,0.00,,OVC003,0.00,VWS V14.01,2013-02-23 02:30:00,
2013-02-22 21:35:00,28.2,26.2,29.83,ENE,63,2.0,0.0,92,0.00,,OVC003,0.00,VWS V14.01,2013-02-23 02:35:00,
2013-02-22 21:40:00,28.3,26.3,29.83,ENE,63,2.0,0.0,92,0.00,,OVC003,0.00,VWS V14.01,2013-02-23 02:40:00,
2013-02-22 21:45:00,28.3,26.3,29.83,ENE,64,2.0,0.0,92,0.00,,OVC003,0.00,VWS V14.01,2013-02-23 02:45:00,
2013-02-22 21:50:00,28.3,26.3,29.83,ENE,64,2.0,0.0,92,0.00,,OVC003,0.00,VWS V14.01,2013-02-23 02:50:00,
2013-02-22 21:55:00,28.3,26.3,29.83,ENE,64,2.0,0.0,92,0.00,,OVC003,0.00,VWS V14.01,2013-02-23 02:55:00,
2013-02-22 22:00:00,28.3,26.3,29.83,ENE,63,2.0,0.0,92,0.00,,OVC003,0.00,VWS V14.01,2013-02-23 03:00:00,
2013-02-22 22:05:00,28.3,26.3,29.83,ENE,64,2.0,0.0,92,0.00,,OVC003,0.00,VWS V14.01,2013-02-23 03:05:00,
2013-02-22 22:10:00,28.4,26.4,29.83,ENE,64,2.0,0.0,92,0.00,,OVC003,0.00,VWS V14.01,2013-02-23 03:10:00,
2013-02-22 22:15:00,28.4,26.4,29.83,ENE,64,2.0,0.0,92,0.00,,OVC003,0.00,VWS V14.01,2013-02-23 03:15:00,
2013-02-22 22:20:00,28.4,26.6,29.82,ENE,64,2.0,0.0,93,0.00,,OVC003,0.00,VWS V14.01,2013-02-23 03:20:00,
2013-02-22 22:25:00,28.5,26.7,29.82,ENE,64,2.0,0.0,93,0.00,,OVC003,0.00,VWS V14.01,2013-02-23 03:25:00,
2013-02-22 22:30:00,28.5,26.7,29.82,ENE,63,2.0,0.0,93,0.00,,OVC003,0.00,VWS V14.01,2013-02-23 03:30:00,
2013-02-22 22:35:00,28.5,26.7,29.82,ENE,63,2.0,0.0,93,0.00,,OVC003,0.00,VWS V14.01,2013-02-23 03:35:00,
2013-02-22 22:40:00,28.5,26.7,29.82,ENE,63,2.0,0.0,93,0.00,,OVC003,0.00,VWS V14.01,2013-02-23 03:40:00,
2013-02-22 22:45:00,28.5,26.7,29.82,ENE,64,2.0,0.0,93,0.00,,OVC003,0.00,VWS V14.01,2013-02-23 03:45:00,
2013-02-22 22:50:00,28.6,26.8,29.81,ENE,63,2.0,0.0,93,0.00,,OVC003,0.00,VWS V14.01,2013-02-23 03:50:00,
2013-02-22 22:55:00,28.6,26.8,29.81,ENE,64,2.0,0.0,93,0.00,,OVC003,0.00,VWS V14.01,2013-02-23 03:55:00,
2013-02-22 23:00:00,28.6,26.8,29.81,ENE,63,2.0,0.0,93,0.00,,OVC003,0.00,VWS V14.01,2013-02-23 04:00:00,
2013-02-22 23:05:00,28.7,26.9,29.81,ENE,63,2.0,0.0,93,0.00,,OVC003,0.00,VWS V14.01,2013-02-23 04:05:00,
2013-02-22 23:10:00,28.7,26.9,29.81,ENE,64,2.0,0.0,93,0.00,,OVC003,0.00,VWS V14.01,2013-02-23 04:10:00,
2013-02-22 23:15:00,28.8,27.0,29.81,ENE,64,2.0,0.0,93,0.00,,OVC003,0.00,VWS V14.01,2013-02-23 04:15:00,
2013-02-22 23:20:00,28.9,27.1,29.80,ENE,64,2.0,0.0,93,0.00,,OVC003,0.00,VWS V14.01,2013-02-23 04:20:00,
2013-02-22 23:25:00,28.9,27.1,29.80,ENE,64,2.0,0.0,93,0.00,,OVC003,0.00,VWS V14.01,2013-02-23 04:25:00,
2013-02-22 23:30:00,29.0,27.2,29.80,ENE,63,2.0,0.0,93,0.00,,OVC003,0.00,VWS V14.01,2013-02-23 04:30:00,
2013-02-22 23:35:00,29.0,27.2,29.80,ENE,64,2.0,0.0,93,0.00,,OVC003,0.00,VWS V14.01,2013-02-23 04:35:00,
2013-02-22 23:40:00,29.2,27.4,29.80,ENE,64,2.0,0.0,93,0.00,,OVC003,0.00,VWS V14.01,2013-02-23 04:40:00,
2013-02-22 23:45:00,29.2,27.4,29.80,ENE,64,2.0,0.0,93,0.00,,OVC003,0.00,VWS V14.01,2013-02-23 04:45:00,
2013-02-22 23:50:00,29.2,27.4,29.80,ENE,64,2.0,0.0,93,0.00,,OVC003,0.00,VWS V14.01,2013-02-23 04:50:00,
2013-02-22 23:55:00,29.2,27.4,29.80,ENE,64,2.0,2.0,93,0.00,,OVC003,0.00,VWS V14.01,2013-02-23 04:55:00,